Location: Home
(42.5358°N, 72.7383°W)
Time: 18:24:15
(UTC-04:00)

Explorer 11/Cluster Stage 4 - Pass Details

Date: 10 August 2024
Orbit: 464 x 1208 km, 28.8° (Epoch: 19 September)

Event Time Altitude Azimuth Distance (km) Brightness Sun altitude
Rises 03:05:23 0° 254° (WSW) 3,745 - -24.9°
Reaches altitude 10° 03:08:34 10° 240° (WSW) 2,903 - -24.6°
Maximum altitude 03:14:01 23° 192° (SSW) 2,230 - -24.0°
Exits shadow 03:17:24 17° 159° (SSE) 2,594 8.9 -23.6°
Drops below altitude 10° 03:19:51 10° 144° (SE) 3,128 9.5 -23.3°
Sets 03:23:26 0° 131° (SE) 4,106 10.2 -22.9°
